Вернуться в каталог

ZACUBE-1

ZACUBE

АктивенЛюбительское радиоSSO
NORAD 39417·PAYLOAD·🇿🇦 South Africa

Запущен Nov 21, 2013 с Dombarovsky

Loading…

Ближайшие Пролёты (ближайшие 24 часа)

TLE

СвежийSource: Space-Track

Эпоха: Sep 14, 2026, 20:13 UTC

1 39417U 13066B   26257.84282502  .00004434  00000-0  33927-3 0  9995
2 39417  97.8141 220.6409 0039756 313.2857  46.5052 15.01806718694185

Отслеживайте ZACUBE-1 в реальном времени с AllMySat

Download on the App Store